User: anonymous   Login
Location: Unspecified
(44.0704°N, 88.6889°W)
Time: 23:03:47
(UTC+02:00)
Language:

Okean 3 - Orbit

View from above orbital plane
View from above orbital plane
View from above satellite
View from above satellite

Ground track
Ground track

The orbit data is extracted from the following two-line orbital elements,

1 21397U 91039A   19109.76272713  .00000215  00000-0  18176-4 0  9994
2 21397  82.5241 220.3213 0018821 146.9175 213.3227 14.92790240509969
Epoch (UTC): 19 April 2019 18:18:19
Eccentricity: 0.0018821
inclination: 82.5241°
perigee height: 576 km
apogee height: 602 km
right ascension of ascending node: 220.3213°
argument of perigee: 146.9175°
revolutions per day: 14.92790240
mean anomaly at epoch: 213.3227°
orbit number at epoch: 50996

The dashed part of the orbit path shows where the satellite is in the earth's shadow,  

DLR